RH
95 94 94 94 95 94 95 99 98 95 95 92 91 94 88 84 81 91 93 62 69 86 83 69 65 61 52 58 58 63 82 89 71 67 53 41 42 36 31 36 31 32 37 34 44
96 96 96 95 93 95 95 96 96 96 96 95 95 88 86 86 87 95 65 60 82 87 73 64 67 56 64 64 64 72 90 80 62 52 48 43 41 37 34 34 34 40 37 40 39
96 95 95 96 96 94 95 94 95 96 97 95 94 88 86 87 94 75 63 85 86 85 75 62 56 54 67 66 67 74 85 70 51 45 44 44 45 39 39 38 36 40 41 40 40
98 99 97 96 96 96 95 94 95 99 96 95 96 87 88 88 64 57 69 86 86 82 68 56 56 66 75 79 67 72 68 56 48 46 43 45 41 41 39 36 31 38 34 38 38
98 98 98 99 97 96 95 95 96 95 95 95 94 90 91 96 90 54 88 87 78 73 57 58 62 68 76 74 68 69 59 62 52 46 44 42 42 43 42 32 37 35 32 36 36
91 97 97 97 96 94 92 96 96 95 95 95 87 93 94 95 49 59 86 78 65 62 49 52 59 59 64 67 72 65 62 52 53 51 46 47 47 44 42 37 44 34 33 33 34
82 86 97 96 95 96 91 95 97 86 84 96 91 98 95 82 49 52 64 59 56 46 45 42 42 49 52 52 51 53 61 44 56 54 50 45 55 54 44 36 44 44 34 40 36
73 82 83 95 93 92 94 91 93 84 81 97 93 97 89 62 66 61 55 40 39 40 36 36 37 42 44 38 41 48 53 70 52 60 47 49 73 31 42 42 44 49 53 48 37
81 73 72 72 69 77 87 89 93 85 82 89 98 91 92 60 60 59 42 34 37 34 34 36 33 40 38 48 55 50 85 72 60 59 40 49 59 28 40 42 44 51 54 46 40
94 89 82 73 83 65 79 80 91 80 86 94 89 91 76 68 52 57 39 33 35 37 36 39 47 51 51 57 88 59 62 50 68 51 44 48 53 39 32 42 44 50 51 49 40
84 86 73 82 80 94 83 89 80 83 90 85 77 77 56 51 50 46 36 36 39 42 59 48 64 77 64 52 38 44 45 42 42 44 45 50 47 43 36 46 44 47 45 49 39
92 87 87 76 83 78 90 92 77 55 78 77 83 79 67 47 50 52 38 45 49 60 53 60 72 60 56 49 44 40 40 38 30 37 50 50 53 45 40 37 46 43 44 43 43
90 70 79 80 71 93 91 88 78 75 90 67 60 73 70 64 52 56 41 46 54 61 63 66 49 48 48 53 55 44 42 38 33 31 39 36 42 37 32 39 40 44 37 33 42
87 73 62 68 90 82 93 70 78 79 100 78 65 61 64 58 68 42 38 42 52 63 63 58 44 45 53 53 52 66 39 33 33 36 45 35 51 34 35 35 39 39 47 39 45
90 89 77 76 84 86 86 84 82 84 96 50 57 43 60 59 53 53 37 40 57 60 56 54 56 54 54 46 42 49 39 38 36 42 38 40 49 38 31 34 35 40 44 46 36
87 88 82 82 78 85 81 79 94 98 92 49 56 65 79 63 43 50 48 34 42 53 45 47 35 42 44 40 37 40 43 49 53 49 71 47 44 39 36 32 28 35 40 44 40
88 91 90 83 84 81 95 95 98 94 46 54 67 67 71 69 55 58 61 52 55 60 62 39 38 33 34 42 34 36 45 80 71 77 74 48 47 36 28 30 29 35 40 41 41
90 83 80 82 84 91 94 100 96 75 65 55 56 70 74 59 55 58 66 71 50 51 64 65 66 42 36 39 44 42 46 73 61 78 59 50 54 35 31 25 27 31 38 49 53
84 82 84 80 79 86 99 97 96 87 51 68 67 85 85 67 61 54 73 68 53 50 58 73 54 37 35 37 32 43 53 48 69 64 81 58 47 34 31 32 38 42 48 53 53
86 87 88 72 81 97 99 95 94 70 79 60 67 74 92 85 90 82 76 66 59 47 48 53 67 41 36 33 36 40 45 55 84 64 64 51 55 39 32 34 45 50 50 54 49
93 97 73 82 93 100 97 95 90 78 73 83 68 83 74 88 87 90 87 65 49 52 52 53 62 52 40 45 52 52 51 68 69 84 69 67 44 43 33 32 46 49 50 52 48
91 99 85 92 99 100 96 90 88 76 71 83 85 82 79 90 95 95 92 78 58 45 56 55 77 75 55 48 44 45 63 68 77 63 95 86 47 33 31 32 43 48 48 48 42
99 95 91 84 98 96 95 87 78 92 84 92 80 64 84 89 96 91 90 65 75 71 64 66 90 89 65 56 56 51 61 78 84 86 87 67 39 34 31 34 44 49 46 43 42
98 98 100 100 100 97 95 88 97 82 86 89 78 70 82 100 84 93 87 76 71 78 58 54 78 74 65 70 75 66 81 67 64 78 71 68 41 32 30 33 46 47 46 43 41
99 91 90 99 96 96 96 95 94 97 84 92 94 84 84 97 93 98 95 98 97 80 65 85 95 72 72 60 62 70 71 77 66 58 55 39 44 34 33 34 38 45 47 44 41
98 100 100 93 92 99 90 95 82 76 88 92 95 98 89 91 85 96 94 99 94 100 97 86 86 69 70 60 63 57 59 67 55 55 57 48 50 41 33 35 34 39 43 41 38
99 98 100 89 99 98 96 95 96 85 84 72 84 85 100 88 89 92 86 98 100 97 98 97 91 76 96 68 61 68 66 67 54 51 45 59 41 48 37 34 37 36 38 37 38
Wind_Speed
16 15 16 16 17 17 17 17 17 16 15 14 13 11 9 8 9 5 5 7 12 4 4 3 4 5 3 3 3 4 2 3 4 6 4 2 3 2 1 7 2 1 5 5 30
17 17 16 15 16 16 17 17 17 17 16 14 14 10 8 8 11 12 12 12 10 6 3 4 4 4 2 4 2 4 4 8 5 3 3 2 2 6 5 5 2 3 7 24 30
19 19 19 18 16 16 16 17 17 16 16 15 12 9 7 7 4 6 5 13 11 7 4 2 3 3 3 3 4 5 5 5 3 3 3 3 3 1 7 4 6 8 12 14 20
20 20 20 19 18 17 16 17 17 15 15 15 11 8 7 2 4 4 5 15 11 8 6 4 3 5 5 5 4 2 5 4 3 3 3 4 4 2 5 2 2 14 22 16 15
21 22 22 21 19 18 18 17 17 15 15 14 9 6 3 2 8 3 9 11 10 10 9 5 5 5 5 5 3 4 3 5 4 4 3 4 3 4 5 2 6 14 14 17 14
23 23 23 22 21 21 20 18 16 15 14 14 8 5 2 6 5 5 13 13 10 11 8 7 6 6 4 3 6 4 5 2 4 4 2 3 2 2 4 6 9 16 15 14 13
22 23 23 22 21 21 21 20 17 17 15 14 8 4 4 13 3 6 13 13 13 9 4 7 5 4 3 1 3 4 3 2 4 5 3 4 7 8 6 8 11 12 13 8 8
22 23 23 22 22 21 21 21 20 20 19 15 7 3 6 8 12 13 13 8 7 8 6 6 7 3 2 1 5 3 3 2 3 7 2 6 7 4 7 9 10 10 9 10 9
24 24 24 25 25 23 20 21 20 18 16 6 5 3 7 3 7 15 16 7 8 6 5 6 5 3 3 5 2 3 4 5 6 8 4 6 6 2 3 7 9 9 10 12 8
25 25 26 28 23 22 21 20 18 14 3 6 4 1 6 5 5 13 15 11 4 5 3 3 3 4 2 4 6 6 3 4 6 5 5 6 10 7 2 8 10 9 8 10 12
27 28 28 26 23 19 18 10 2 4 6 9 7 4 1 1 6 8 14 8 4 4 6 3 4 14 16 4 2 4 3 5 4 4 5 8 7 10 5 5 7 8 8 9 12
29 28 27 27 24 20 14 4 5 5 5 14 15 9 13 4 3 5 17 7 5 6 4 3 9 8 4 5 4 3 3 4 2 2 4 1 12 12 8 7 10 12 9 11 7
26 28 30 28 27 19 17 22 18 7 5 7 7 8 8 11 7 10 14 7 5 6 7 6 4 12 9 5 9 4 4 3 1 1 1 5 8 8 5 7 8 9 11 10 15
27 28 26 24 14 18 10 22 23 5 5 6 6 9 10 8 9 7 17 7 4 12 8 6 4 6 8 8 10 10 8 3 3 3 4 1 5 5 4 6 7 11 12 13 10
29 29 27 16 7 6 3 12 16 6 10 6 8 2 8 11 9 9 20 4 9 9 8 9 9 7 5 8 12 6 6 7 3 3 3 1 1 8 1 6 9 11 11 13 15
28 27 24 19 18 20 19 12 7 7 8 3 6 6 6 5 2 4 12 4 5 5 1 5 2 6 7 3 10 10 7 8 5 3 2 6 6 6 5 6 4 5 11 13 13
27 25 22 16 7 11 19 4 8 10 3 4 6 6 5 7 5 5 14 12 9 6 5 2 3 3 5 8 4 3 6 3 2 1 6 1 3 9 5 6 5 8 9 10 12
24 23 20 20 16 15 8 4 10 8 9 0 6 5 7 6 4 6 12 14 8 4 4 8 4 9 5 7 8 6 7 6 8 4 3 2 7 7 4 2 5 2 6 8 9
20 19 11 16 15 15 2 5 4 5 13 6 3 5 3 3 6 5 8 15 14 9 7 5 5 2 2 5 10 6 6 4 6 2 3 4 7 9 5 2 2 5 7 8 8
12 6 7 16 9 10 4 5 4 5 4 4 8 4 8 8 4 5 7 6 10 12 2 6 3 1 2 3 4 5 8 3 3 2 4 4 5 5 5 8 6 6 8 7 7
1 2 4 4 13 3 4 5 5 9 7 7 6 4 5 7 7 7 6 4 12 13 7 4 4 1 4 5 8 3 3 4 4 3 5 2 6 5 6 9 10 9 8 10 10
1 2 0 9 4 2 4 5 2 5 11 5 4 4 6 5 5 6 9 4 5 8 14 4 4 4 5 1 1 3 6 6 5 5 0 2 6 2 5 6 7 8 8 7 10
1 3 1 7 4 5 2 3 6 3 3 1 4 7 4 6 5 7 9 9 9 4 14 6 3 3 3 3 3 5 5 5 5 3 6 5 5 2 3 5 6 9 7 8 7
1 3 2 2 1 1 2 4 4 4 6 3 4 6 3 4 5 6 6 5 5 11 18 13 5 7 10 7 6 5 4 6 6 3 4 6 5 4 4 7 6 7 8 9 8
2 3 2 2 3 4 1 0 5 3 7 1 4 7 6 6 5 4 4 1 3 7 5 10 10 3 1 4 4 5 7 11 12 6 8 4 7 6 9 9 7 7 7 8 8
2 2 2 3 4 5 7 5 10 7 5 3 2 10 7 7 9 8 6 3 3 3 10 5 5 4 2 3 5 4 7 11 13 4 7 2 6 6 3 7 7 9 9 8 8
2 1 1 3 2 1 2 1 4 3 4 6 7 8 5 6 3 3 5 5 1 4 5 8 4 7 4 4 5 4 12 12 10 9 15 12 10 5 4 7 10 10 11 11 8
Wind_Direction
324 322 323 320 320 325 329 333 335 336 335 331 332 322 312 298 297 270 235 213 197 227 217 189 180 172 157 135 122 136 82 227 224 165 244 183 133 37 84 113 96 54 146 168 154
317 316 317 318 315 318 322 326 331 333 335 330 327 324 313 311 302 264 260 202 210 193 204 193 179 145 139 166 163 137 166 210 210 209 230 176 156 154 144 130 111 52 48 128 147
310 310 312 313 312 312 314 318 324 329 332 329 325 319 316 327 318 252 224 191 185 188 205 179 153 147 177 142 191 182 203 199 232 209 205 160 127 130 130 216 193 179 152 147 150
315 305 304 305 308 310 307 310 317 322 327 328 320 309 310 327 277 321 192 183 179 198 177 154 125 154 167 197 186 175 226 171 196 188 145 172 143 194 204 190 228 162 164 153 166
317 315 309 300 301 302 305 307 313 316 319 325 312 301 314 258 250 257 161 175 182 175 165 164 154 151 186 193 138 215 231 200 224 174 147 134 198 222 239 104 105 142 160 165 163
310 312 314 309 297 296 299 302 309 312 312 319 302 290 246 252 243 218 185 184 192 181 179 168 191 194 201 204 180 215 192 208 217 183 169 187 239 162 245 127 120 150 172 176 169
309 306 311 311 309 296 292 296 299 305 310 309 288 247 236 250 212 193 190 195 196 193 179 186 180 172 139 187 199 135 132 358 227 189 211 129 274 224 209 159 157 173 179 164 157
301 300 298 307 309 310 299 289 294 302 308 300 256 219 244 257 242 231 195 197 196 199 206 197 171 144 161 112 29 104 85 179 262 152 207 124 264 277 199 166 184 178 179 172 174
291 294 295 297 296 304 307 295 284 296 302 271 210 193 257 248 222 212 201 173 171 175 186 153 127 140 97 109 42 338 214 215 309 202 143 179 258 214 163 186 195 186 183 186 166
308 295 285 291 294 292 302 305 284 295 204 180 218 254 263 223 190 184 184 166 143 131 101 111 73 152 113 153 206 198 221 227 214 214 187 210 254 250 200 192 207 189 182 184 182
298 293 295 281 288 292 301 325 314 265 219 196 203 231 341 312 143 172 160 120 93 103 170 197 170 207 197 172 133 157 194 214 231 193 155 229 260 251 216 199 214 199 184 188 194
293 292 287 286 281 286 288 231 246 316 269 233 253 265 271 289 181 199 163 141 154 182 128 78 231 211 148 172 201 159 206 234 317 104 178 280 261 255 201 218 197 193 195 192 168
299 292 290 286 284 283 251 244 253 297 255 218 201 208 224 187 228 191 167 140 152 157 177 180 209 173 166 171 200 205 182 214 257 90 193 332 274 242 234 208 189 197 196 193 185
297 299 295 291 288 253 249 266 242 168 274 217 217 235 196 156 227 181 180 137 176 185 155 225 231 148 187 207 177 221 191 177 149 132 232 61 274 283 238 233 210 199 190 186 183
295 294 292 279 256 231 265 338 238 141 246 211 195 187 170 174 138 220 177 114 170 171 146 220 179 157 174 208 175 212 139 141 101 91 355 218 66 270 40 250 232 210 198 190 184
292 291 295 279 262 270 249 293 168 201 241 247 134 155 122 184 101 81 171 88 150 132 349 194 179 158 179 73 162 152 86 53 60 75 321 220 170 271 205 218 220 194 200 185 177
291 291 287 271 256 264 234 285 218 192 170 208 184 162 160 161 135 146 178 184 170 142 172 117 200 148 120 81 32 109 104 32 354 336 221 169 160 255 237 231 230 209 195 178 170
293 297 284 273 263 234 154 205 247 212 199 289 141 126 173 142 182 155 162 196 228 101 131 160 234 167 172 157 168 177 165 158 197 200 210 121 225 249 218 199 250 244 153 139 155
301 292 272 270 264 237 169 219 206 160 226 179 69 109 217 154 130 135 186 204 201 172 167 141 241 55 28 144 155 193 202 147 103 25 50 211 280 287 205 216 186 164 151 167 163
302 282 254 262 217 192 206 241 175 253 286 183 169 163 184 174 131 148 173 220 212 191 143 194 91 360 136 101 38 151 156 95 9 153 252 260 276 247 207 206 193 183 184 166 149
264 288 283 235 183 209 208 206 234 246 282 244 206 135 185 165 143 180 201 289 216 185 142 133 106 256 144 218 164 131 163 56 118 140 177 184 255 221 233 191 190 194 179 167 161
140 252 187 167 210 200 212 194 181 249 208 278 165 145 158 147 140 187 193 227 359 210 190 161 123 156 181 266 8 144 167 146 143 242 192 144 275 7 299 194 169 179 169 163 164
186 255 229 162 234 207 270 231 214 227 269 297 256 214 138 173 156 188 198 216 170 265 180 177 201 101 47 358 9 199 173 118 118 92 207 149 265 7 13 139 173 167 168 160 151
65 334 262 181 299 24 224 236 234 207 255 246 274 256 184 183 229 191 225 199 162 205 218 190 171 175 192 199 136 166 186 176 144 153 166 226 289 249 205 183 181 179 173 165 167
138 249 304 283 266 220 189 35 200 230 216 213 267 222 176 179 205 217 212 209 212 230 228 181 203 136 348 139 135 164 175 171 200 179 190 222 207 236 208 196 189 169 150 156 168
161 251 239 281 286 221 218 223 224 233 174 203 193 304 211 170 189 186 166 198 204 127 181 153 214 144 98 175 178 166 190 201 211 164 269 207 254 225 136 117 156 174 164 176 178
162 284 283 269 253 156 250 250 233 205 226 225 208 214 269 245 58 124 130 142 252 187 147 158 172 175 180 193 186 265 197 186 204 202 201 205 215 161 177 190 187 179 179 182 172